| time (UTC) | temp C | wind direction | speed KPH | gust KPH | rain 1hr cm | rain 24hr cm | rain mn cm | humidity % | barometer mb |
| 20260503071622 | 9 | 0 | 0.0 | 0.0 | 0.00 | 0.00 | 0.00 | 5 | |
| 20260503053623 | 9 | 0 | 0.0 | 0.0 | 0.00 | 0.00 | 0.00 | 5 | |
| 20260503051622 | -17 | 0 | 0.0 | 0.0 | 0.00 | 0.00 | 0.00 | 100 | |
| 20260503045623 | -17 | 0 | 0.0 | 0.0 | 0.00 | 0.00 | 0.00 | 100 | |
| 20260503043622 | -17 | 0 | 0.0 | 0.0 | 0.00 | 0.00 | 0.00 | 100 | |
| 20260503041622 | 9 | 0 | 0.0 | 0.0 | 0.00 | 0.00 | 0.00 | 4 | |
| 20260503035622 | 9 | 0 | 0.0 | 0.0 | 0.00 | 0.00 | 0.00 | 4 | |
| 20260503033622 | -17 | 0 | 0.0 | 0.0 | 0.00 | 0.00 | 0.00 | 100 | |
| 20260503025623 | -17 | 0 | 0.0 | 0.0 | 0.00 | 0.00 | 0.00 | 100 | |
| 20260503023623 | 8 | 0 | 0.0 | 0.0 | 0.00 | 0.00 | 0.00 | 4 | |
| 20260503021622 | 8 | 0 | 0.0 | 0.0 | 0.00 | 0.00 | 0.00 | 4 | |
| 20260503015622 | -17 | 0 | 0.0 | 0.0 | 0.00 | 0.00 | 0.00 | 100 | |
| 20260503013622 | -17 | 0 | 0.0 | 0.0 | 0.00 | 0.00 | 0.00 | 100 | |
| 20260503011622 | 11 | 0 | 0.0 | 0.0 | 0.00 | 0.00 | 0.00 | 4 | |
| 20260503005623 | 12 | 0 | 0.0 | 0.0 | 0.00 | 0.00 | 0.00 | 3 | |
| 20260503003622 | 12 | 0 | 0.0 | 0.0 | 0.00 | 0.00 | 0.00 | 3 | |
| 20260503001622 | -17 | 0 | 4.8 | 0.0 | 0.00 | 0.00 | 0.00 | 100 | |
| 20260502235622 | -17 | 318 | 11.3 | 0.0 | 0.00 | 0.00 | 0.00 | 100 | |
| 20260502233622 | -17 | 302 | 11.3 | 0.0 | 0.00 | 0.00 | 0.00 | 100 | |
| 20260502231622 | 15 | 0 | 8.0 | 0.0 | 0.00 | 0.00 | 0.00 | 2 | |
| 20260502225622 | -17 | 0 | 4.8 | 0.0 | 0.00 | 0.00 | 0.00 | 100 | |
| 20260502223623 | -17 | 0 | 12.9 | 0.0 | 0.00 | 0.00 | 0.00 | 100 | |
| 20260502221622 | -17 | 315 | 8.0 | 0.0 | 0.00 | 0.00 | 0.00 | 100 | |
| 20260502215622 | 15 | 0 | 8.0 | 0.0 | 0.00 | 0.00 | 0.00 | 3 | |
| 20260502213622 | 15 | 0 | 4.8 | 0.0 | 0.00 | 0.00 | 0.00 | 3 | |
| 20260502211622 | -17 | 0 | 16.1 | 0.0 | 0.00 | 0.00 | 0.00 | 100 | |
| 20260502205623 | -17 | 0 | 8.0 | 0.0 | 0.00 | 0.00 | 0.00 | 100 | |
| 20260502203622 | -17 | 262 | 1.6 | 0.0 | 0.00 | 0.00 | 0.00 | 100 | |
| 20260502201622 | 15 | 0 | 8.0 | 0.0 | 0.00 | 0.00 | 0.00 | 2 | |
| 20260502195622 | 15 | 0 | 6.4 | 0.0 | 0.00 | 0.00 | 0.00 | 2 | |
| 20260502193622 | -17 | 0 | 9.7 | 0.0 | 0.00 | 0.00 | 0.00 | 100 | |
| 20260502185622 | -17 | 228 | 8.0 | 0.0 | 0.00 | 0.00 | 0.00 | 100 | |
| 20260502183622 | 15 | 0 | 0.0 | 0.0 | 0.00 | 0.00 | 0.00 | 3 | |
| 20260502163622 | -17 | 0 | 9.7 | 0.0 | 0.00 | 0.00 | 0.00 | 100 | |
| 20260502161622 | -17 | 0 | 6.4 | 0.0 | 0.00 | 0.00 | 0.00 | 100 | |
| 20260502151622 | -17 | 0 | 4.8 | 0.0 | 0.00 | 0.00 | 0.00 | 100 | |
| 20260502123622 | -17 | 0 | 0.0 | 0.0 | 0.00 | 0.00 | 0.00 | 100 | |
| 20260502121622 | 1 | 0 | 0.0 | 0.0 | 0.00 | 0.00 | 0.00 | 9 | |
| 20260502115703 | -1 | 0 | 0.0 | 0.0 | 0.00 | 0.00 | 0.00 | 9 | |
| 20260502115622 | -1 | 0 | 0.0 | 0.0 | 0.00 | 0.00 | 0.00 | 9 | |
| 20260502113622 | -17 | 0 | 0.0 | 0.0 | 0.00 | 0.00 | 0.00 | 100 | |
| 20260502111706 | -17 | 0 | 0.0 | 0.0 | 0.00 | 0.00 | 0.00 | 100 | |
| 20260502111622 | -17 | 0 | 0.0 | 0.0 | 0.00 | 0.00 | 0.00 | 100 | |
| 20260502105703 | -17 | 0 | 0.0 | 0.0 | 0.00 | 0.00 | 0.00 | 100 | |
| 20260502105623 | -17 | 0 | 0.0 | 0.0 | 0.00 | 0.00 | 0.00 | 100 | |
| 20260502103622 | -1 | 0 | 0.0 | 0.0 | 0.00 | 0.00 | 0.00 | 8 | |
| 20260502101622 | -17 | 0 | 0.0 | 0.0 | 0.00 | 0.00 | 0.00 | 100 |